Location: Navalespino
(40.5894°N, 4.2660°W)
Time: 09:23:28
(UTC+00:00)

USA 229 - Pass Details

Date: 18 April 2024
Orbit: 890 x 1322 km, 63.4° (Epoch: 18 May)

Event Time Altitude Azimuth Distance (km) Brightness Sun altitude
Rises 19:50:01 0° 178° (S) 3,498 6.1 -9.8°
Reaches altitude 10° 19:52:49 10° 166° (SSE) 2,587 5.4 -10.3°
Maximum altitude 19:57:44 27° 110° (ESE) 1,732 4.2 -11.1°
Drops below altitude 10° 20:02:58 10° 55° (NE) 2,771 5.6 -12.0°
Sets 20:06:03 0° 44° (NE) 3,796 6.4 -12.5°
